Wetbulb
67.26 67.45 68.46 68.39 67.59 68.25 67.71 67.50 68.37 68.89 69.45 69.52 70.02 69.15 68.60 68.57 68.82 67.97 69.15 71.33 70.57 70.22 69.37 69.23 69.57 70.08 70.28 70.47 70.99 71.13 70.90 71.45 71.71 70.52 70.42 69.95 69.20 69.88 69.94 69.54 68.36 67.79 68.64
68.76 68.62 67.81 68.49 69.48 68.56 68.56 67.62 68.58 68.69 69.71 70.35 69.93 69.97 69.37 69.05 68.97 69.37 68.71 69.45 70.31 70.41 70.67 70.23 69.96 70.01 70.05 70.36 70.10 70.89 70.22 70.12 71.36 70.93 70.38 69.43 69.52 69.64 70.18 68.85 68.39 68.09 67.62
69.83 68.59 69.06 68.32 67.90 69.99 69.21 68.02 68.17 70.33 70.58 69.97 68.92 69.74 68.70 69.49 69.18 68.97 69.80 68.38 68.58 70.32 70.45 70.39 70.62 70.19 70.23 70.41 70.88 70.69 70.64 69.92 70.74 70.71 70.25 70.01 69.93 70.00 70.03 69.34 69.34 69.03 68.97
70.64 71.07 69.45 69.28 69.80 68.58 68.95 69.40 68.01 68.06 68.00 68.13 68.37 67.66 69.27 69.17 68.95 68.64 68.57 68.66 68.39 67.21 69.02 70.16 70.29 70.74 69.95 70.06 70.18 70.89 71.08 69.75 70.20 71.01 70.69 70.12 69.72 69.95 69.74 69.93 69.30 69.25 69.13
71.97 70.66 70.86 70.63 70.44 69.67 69.13 67.67 68.06 68.42 67.03 68.30 67.35 68.61 69.14 69.14 68.91 69.48 68.24 67.52 67.51 67.93 67.59 69.12 69.72 69.92 70.25 70.22 70.27 70.28 70.64 70.21 70.38 70.91 70.88 70.27 69.86 69.54 69.04 69.14 69.15 68.97 69.02
73.40 71.84 71.37 70.70 72.55 68.91 68.25 68.65 67.08 67.33 67.33 67.63 66.75 66.96 69.27 68.63 68.47 67.87 66.97 67.19 68.07 66.19 66.99 67.58 67.43 67.41 69.09 70.20 70.84 70.67 70.45 70.20 70.55 71.14 70.87 69.98 69.33 68.75 68.68 69.13 68.80 68.89 68.77
73.49 72.65 71.19 72.07 70.19 69.87 68.17 68.80 67.97 66.85 66.88 68.02 66.39 65.68 67.58 67.63 67.64 67.30 67.01 66.94 66.83 67.18 66.74 66.78 66.70 65.12 66.36 69.05 69.84 70.42 70.60 70.14 69.61 70.93 70.35 69.33 68.93 68.68 68.86 69.15 68.92 68.59 67.42
73.41 72.87 72.16 70.64 71.01 69.79 69.00 69.25 67.47 65.80 67.20 67.60 64.46 65.03 61.75 63.29 65.56 66.69 66.75 66.64 66.38 66.40 66.81 67.18 66.18 66.20 65.81 65.60 67.17 69.74 70.20 70.58 69.95 70.52 70.20 68.80 69.08 69.04 68.96 68.76 69.08 67.13 66.07
73.68 72.80 72.02 71.23 71.23 69.65 68.34 68.59 68.47 66.40 64.50 66.75 68.10 64.72 60.15 57.65 60.48 64.53 65.51 64.88 64.84 65.92 65.62 66.25 65.84 65.74 66.50 63.23 66.50 68.29 69.42 69.41 69.52 70.00 70.06 68.91 68.95 69.09 68.73 68.85 67.96 66.84 64.97
73.13 72.59 72.00 71.13 72.01 69.70 69.19 68.47 68.44 67.33 66.51 65.81 66.84 66.68 65.02 63.55 58.38 57.37 62.22 63.11 64.17 65.16 65.32 65.38 64.88 66.40 64.19 61.47 61.79 62.97 67.11 68.58 69.03 68.14 70.00 69.65 69.24 68.99 69.09 68.50 67.40 66.84 64.97
72.41 71.34 71.65 70.89 71.62 69.56 69.32 68.10 68.23 67.36 67.42 67.31 65.48 64.58 64.20 63.04 62.55 59.01 56.34 59.45 62.93 63.73 65.76 64.87 65.20 64.90 63.85 63.21 61.62 63.50 65.78 67.21 67.98 67.40 68.71 69.38 69.55 69.17 69.04 68.24 67.37 65.67 65.13
70.63 69.97 70.86 70.09 70.13 68.98 69.68 69.06 68.33 68.74 68.45 67.32 65.57 64.75 63.01 61.06 59.88 59.65 58.71 58.71 59.32 61.94 63.61 64.16 64.38 64.58 65.36 64.86 63.61 64.25 64.94 65.92 65.59 65.74 67.10 67.75 68.61 68.54 69.02 68.63 66.74 66.03 65.54
68.92 68.82 69.10 69.86 68.84 70.02 70.83 70.83 69.78 68.46 67.65 66.21 65.69 64.43 64.85 63.25 62.75 62.04 60.48 58.62 57.90 60.72 61.90 63.46 63.78 64.27 65.38 64.37 64.17 65.27 65.56 64.45 63.35 63.19 64.23 64.94 66.23 67.14 67.41 66.79 66.31 65.86 65.54
68.83 69.47 70.03 69.59 70.10 70.30 70.77 70.10 68.89 67.86 67.41 66.71 66.05 64.91 64.70 64.04 64.59 63.08 61.20 59.60 57.02 58.35 60.41 59.69 63.98 63.70 62.76 63.92 64.94 65.01 64.75 63.19 61.70 61.47 61.79 62.55 63.92 64.87 64.60 64.61 64.72 64.79 64.89
69.41 69.19 70.93 70.43 70.83 70.12 69.45 68.77 67.70 67.20 67.17 66.55 65.99 66.19 64.59 64.83 64.88 63.91 63.32 62.12 59.03 55.23 56.28 59.25 61.17 62.96 62.43 63.41 64.36 65.25 64.52 62.01 61.65 60.37 60.55 61.03 61.73 62.10 62.09 62.31 62.73 62.89 62.97
70.79 70.47 70.44 70.14 69.60 69.15 68.51 68.80 67.81 67.22 66.90 66.63 66.12 65.12 65.03 64.54 65.08 64.15 62.87 61.37 61.53 58.89 55.92 59.71 60.30 62.66 64.37 63.32 64.79 64.90 63.51 61.95 60.03 59.94 60.79 60.10 59.82 59.72 59.94 60.34 60.58 60.86 61.37
70.64 69.81 69.54 68.93 68.60 68.25 68.39 67.65 67.28 66.16 65.61 65.63 65.50 64.11 64.87 65.25 64.18 63.97 62.52 62.68 60.86 60.66 58.38 60.20 62.20 62.75 62.86 63.56 64.39 63.25 64.75 62.30 60.99 59.91 59.94 58.88 57.85 57.90 58.52 58.68 59.11 59.60 60.10
69.89 69.16 68.80 67.79 67.40 67.08 67.64 66.96 66.03 65.65 64.81 65.00 64.72 64.26 64.35 65.42 64.19 63.67 63.42 61.68 61.37 61.71 60.05 58.93 61.14 62.13 62.21 63.79 64.49 64.16 63.34 63.05 61.00 59.39 58.31 57.44 56.56 56.62 56.54 57.00 57.46 57.23 56.90
69.31 67.59 67.38 66.63 65.70 65.79 65.64 66.89 66.36 65.62 65.00 64.67 64.46 63.66 64.21 64.21 62.99 63.16 63.70 62.27 62.40 62.86 61.74 60.63 59.54 61.03 62.39 62.48 61.72 61.70 60.30 59.89 59.87 59.52 57.34 56.64 55.86 55.70 55.76 55.78 55.76 55.23 54.23
67.19 66.69 66.76 65.62 66.01 65.38 66.29 66.02 65.86 65.06 65.12 64.08 65.10 64.05 64.04 64.19 63.46 63.69 63.29 63.33 63.11 61.91 61.64 59.64 59.22 58.83 59.78 60.38 60.03 58.37 57.08 58.79 58.03 59.43 58.49 57.34 56.14 55.22 54.90 55.21 55.49 55.39 53.42
66.52 66.07 66.19 65.03 66.10 63.14 63.69 65.50 66.64 65.46 64.39 63.28 64.24 64.60 64.19 63.57 61.34 63.11 65.19 63.81 63.11 61.84 60.08 58.09 57.74 57.36 57.48 57.69 57.46 57.93 56.04 56.34 57.35 58.29 57.81 58.40 58.04 57.88 55.98 56.02 57.43 56.02 52.75
66.43 64.37 64.63 64.73 64.93 62.14 49.33 51.89 60.80 65.20 64.46 64.05 62.82 63.86 62.03 58.64 56.66 56.34 56.96 59.32 61.86 61.10 58.92 57.94 56.86 56.30 56.92 57.63 57.59 56.56 55.96 55.30 53.40 58.95 57.72 57.75 59.40 58.39 58.94 58.65 54.49 51.89 51.01
65.40 64.48 64.18 64.63 64.02 60.51 48.99 50.62 54.75 64.88 65.23 64.13 64.08 63.67 64.01 63.33 61.94 61.41 53.66 54.97 55.56 54.85 57.88 59.87 57.21 57.38 56.86 57.82 57.76 56.64 56.83 55.73 54.86 56.98 57.08 55.33 57.90 57.08 57.60 55.09 51.45 50.16 49.40
66.07 65.74 65.38 65.02 63.07 57.93 48.99 50.98 55.15 64.22 64.79 64.43 64.53 64.03 63.91 63.73 62.77 62.61 63.05 62.53 61.98 61.21 60.87 61.33 59.79 58.77 59.14 59.09 58.95 58.43 56.89 55.92 56.67 56.92 56.88 53.31 56.26 55.28 54.38 54.60 50.84 49.70 48.46
65.14 65.52 65.68 65.39 62.63 59.90 48.81 51.89 58.49 61.87 62.36 62.40 61.15 60.49 63.27 61.78 51.08 50.77 61.72 59.58 57.96 56.04 50.86 50.07 51.24 49.53 48.26 49.68 55.07 57.58 55.50 54.52 53.56 54.41 55.77 54.92 54.81 54.44 55.27 55.40 52.06 49.53 48.28
65.70 65.41 64.69 64.87 56.96 60.55 47.90 50.26 56.96 59.38 58.56 58.49 61.03 59.17 49.84 55.53 48.99 51.35 60.91 58.94 56.40 56.82 57.18 56.91 55.02 51.32 52.94 52.05 51.51 58.19 56.95 54.34 53.71 53.06 55.67 54.28 54.81 55.24 53.28 57.30 54.95 49.99 49.32
MSLP
1008.16 1008.59 1008.57 1008.63 1009.24 1009.68 1010.21 1010.58 1010.85 1011.18 1011.53 1011.56 1011.18 1010.85 1010.95 1010.67 1010.68 1010.78 1011.40 1011.62 1011.91 1012.21 1012.46 1012.58 1012.98 1013.29 1013.48 1013.80 1014.13 1014.42 1014.79 1014.98 1015.23 1015.60 1015.85 1016.26 1016.72 1016.69 1017.10 1017.93 1018.37 1018.78 1019.07
1007.30 1007.66 1007.95 1008.09 1008.31 1008.79 1009.15 1009.75 1009.97 1010.13 1010.00 1010.81 1010.70 1010.76 1010.78 1010.55 1010.53 1010.63 1010.83 1011.38 1011.61 1011.88 1012.09 1012.32 1012.57 1012.91 1013.13 1013.37 1013.82 1014.11 1014.59 1014.88 1015.08 1015.33 1015.69 1016.02 1016.34 1016.57 1017.00 1017.78 1018.04 1018.69 1018.77
1006.43 1006.95 1007.17 1007.57 1007.85 1007.98 1008.43 1009.06 1009.37 1009.41 1009.73 1009.61 1009.81 1010.07 1010.37 1010.29 1010.32 1010.49 1010.69 1011.15 1011.39 1011.52 1011.75 1011.90 1012.16 1012.50 1012.71 1012.97 1013.33 1013.75 1014.09 1014.56 1014.78 1015.03 1015.29 1015.77 1016.13 1016.53 1016.93 1017.38 1017.62 1017.99 1018.52
1005.28 1006.08 1006.47 1006.75 1007.23 1007.64 1007.96 1008.18 1008.73 1008.96 1008.94 1009.09 1009.10 1009.38 1009.54 1009.99 1010.31 1010.36 1010.45 1010.66 1011.16 1011.38 1011.60 1011.77 1011.77 1011.98 1012.24 1012.54 1012.83 1013.30 1013.67 1014.23 1014.57 1014.76 1015.07 1015.46 1015.93 1016.32 1016.62 1016.92 1017.35 1017.75 1018.32
1004.38 1005.15 1005.66 1006.12 1006.64 1007.05 1007.39 1007.66 1007.97 1008.45 1008.98 1009.14 1009.00 1009.05 1009.31 1009.61 1009.93 1010.14 1010.27 1010.29 1010.55 1010.82 1010.88 1011.04 1011.17 1011.34 1011.73 1012.05 1012.39 1012.87 1013.36 1013.82 1014.20 1014.53 1014.94 1015.35 1015.65 1015.98 1016.34 1016.71 1017.18 1017.62 1018.01
1003.58 1004.53 1005.09 1005.59 1006.02 1006.54 1006.83 1007.11 1007.48 1007.95 1008.43 1008.75 1009.03 1009.01 1009.11 1009.52 1009.75 1009.82 1009.73 1009.65 1009.67 1009.97 1010.16 1010.38 1010.75 1011.12 1011.67 1011.96 1012.06 1012.34 1012.90 1013.49 1013.91 1014.34 1014.66 1015.13 1015.59 1015.89 1016.27 1016.75 1017.20 1017.64 1018.05
1002.98 1003.93 1004.67 1005.10 1005.58 1005.90 1006.27 1006.76 1007.25 1007.81 1008.03 1008.21 1008.72 1009.03 1009.21 1009.36 1009.33 1009.22 1009.23 1009.32 1009.51 1009.51 1009.65 1009.74 1010.52 1011.11 1011.26 1011.72 1011.94 1011.97 1012.39 1013.08 1013.60 1014.08 1014.55 1014.94 1015.39 1015.85 1016.32 1016.68 1017.13 1017.57 1018.19
1002.57 1003.38 1004.12 1004.77 1005.14 1005.56 1005.96 1006.34 1006.82 1007.37 1007.86 1008.15 1008.71 1009.10 1009.28 1009.07 1008.81 1008.83 1008.79 1009.07 1009.35 1009.33 1009.35 1009.44 1010.45 1010.90 1011.69 1011.76 1012.02 1011.81 1012.05 1012.56 1013.10 1013.69 1014.28 1014.73 1015.19 1015.66 1016.12 1016.65 1017.13 1017.94 1018.57
1002.27 1003.03 1003.72 1004.34 1004.69 1005.18 1005.61 1006.12 1006.50 1007.00 1007.62 1008.02 1008.46 1008.83 1008.82 1008.67 1008.66 1008.65 1008.90 1008.96 1009.03 1009.19 1009.35 1009.71 1010.31 1011.09 1011.77 1012.16 1011.96 1011.88 1012.04 1012.36 1012.92 1013.44 1014.01 1014.60 1014.99 1015.54 1016.21 1016.70 1017.33 1018.15 1018.87
1002.08 1002.78 1003.45 1004.02 1004.33 1004.68 1005.15 1005.71 1006.30 1006.89 1007.28 1007.80 1008.43 1008.48 1008.73 1008.71 1008.90 1008.90 1008.95 1009.05 1009.06 1009.20 1009.37 1009.71 1010.34 1010.52 1011.37 1011.82 1011.66 1011.76 1011.88 1012.41 1012.89 1013.52 1013.85 1014.40 1015.05 1015.46 1016.18 1016.79 1017.45 1018.15 1018.96
1002.14 1002.80 1003.32 1003.73 1004.19 1004.41 1004.96 1005.34 1006.17 1006.72 1007.02 1007.46 1007.91 1008.15 1008.29 1008.47 1008.62 1009.08 1009.14 1009.16 1009.26 1009.22 1009.31 1009.48 1009.73 1010.24 1010.87 1011.29 1010.91 1011.31 1011.87 1012.39 1012.78 1013.33 1013.84 1014.36 1014.86 1015.36 1016.04 1016.80 1017.53 1018.37 1018.92
1002.29 1002.87 1003.30 1003.67 1004.08 1004.43 1004.76 1005.34 1005.84 1006.38 1006.78 1007.24 1007.64 1007.69 1007.77 1008.10 1008.26 1008.63 1009.08 1009.21 1009.30 1009.21 1009.17 1009.38 1009.48 1010.15 1010.37 1011.02 1011.20 1011.24 1011.98 1012.52 1012.74 1013.01 1013.68 1014.23 1014.68 1015.31 1015.92 1016.69 1017.60 1018.30 1019.06
1002.51 1002.98 1003.36 1003.59 1004.09 1004.29 1004.55 1005.05 1005.64 1006.24 1006.72 1007.12 1007.26 1007.40 1007.47 1007.54 1007.94 1008.49 1008.95 1009.20 1009.37 1009.49 1009.65 1009.90 1010.15 1010.47 1010.16 1010.83 1011.46 1011.76 1012.26 1012.27 1012.61 1012.99 1013.58 1014.22 1014.68 1015.28 1015.98 1016.83 1017.63 1018.32 1019.03
1002.44 1002.92 1003.26 1003.48 1003.81 1004.12 1004.61 1005.07 1005.76 1006.18 1006.54 1006.81 1006.97 1007.23 1007.55 1007.62 1007.93 1008.30 1008.61 1009.02 1009.35 1009.53 1009.74 1010.08 1010.54 1010.72 1010.87 1010.99 1011.20 1011.50 1012.02 1012.38 1012.69 1013.05 1013.58 1014.27 1014.84 1015.56 1016.43 1017.22 1017.99 1018.54 1019.07
1002.07 1002.62 1002.91 1003.22 1003.56 1004.12 1004.62 1005.13 1005.46 1005.90 1006.16 1006.51 1006.92 1007.16 1007.48 1007.70 1007.83 1008.03 1008.27 1008.74 1009.04 1009.55 1010.02 1010.14 1010.50 1010.78 1010.58 1010.81 1011.01 1011.65 1011.97 1012.54 1012.89 1013.49 1013.93 1014.56 1015.18 1016.00 1016.86 1017.56 1018.10 1018.72 1019.32
1001.57 1002.23 1002.66 1003.14 1003.59 1003.96 1004.47 1004.94 1005.32 1005.65 1006.03 1006.46 1006.91 1007.26 1007.52 1007.82 1007.79 1007.95 1008.32 1008.69 1008.97 1009.41 1010.02 1010.16 1010.27 1010.57 1010.81 1011.23 1011.44 1011.63 1012.08 1012.76 1013.27 1013.74 1014.26 1014.93 1015.58 1016.38 1017.13 1017.77 1018.38 1018.96 1019.59
1001.54 1002.20 1002.64 1003.15 1003.52 1003.93 1004.29 1004.85 1005.14 1005.47 1005.88 1006.50 1006.95 1007.30 1007.39 1007.61 1007.88 1008.06 1008.21 1008.63 1009.20 1009.51 1009.84 1010.32 1010.39 1010.52 1010.92 1011.26 1011.51 1012.03 1012.36 1013.05 1013.92 1014.18 1014.59 1015.31 1015.95 1016.72 1017.39 1018.00 1018.65 1019.20 1019.67
1001.63 1002.07 1002.48 1002.92 1003.42 1003.90 1004.38 1004.77 1005.18 1005.25 1005.79 1006.22 1006.62 1007.10 1007.12 1007.35 1007.74 1007.95 1008.35 1008.82 1009.16 1009.52 1009.81 1010.34 1010.76 1011.20 1011.40 1011.67 1012.12 1012.42 1012.91 1013.89 1014.46 1014.84 1015.22 1015.81 1016.47 1017.10 1017.71 1018.36 1018.87 1019.30 1019.77
1001.58 1002.01 1002.53 1003.03 1003.38 1003.74 1004.20 1004.55 1004.93 1005.32 1005.67 1006.04 1006.46 1006.85 1007.03 1007.29 1007.62 1007.88 1008.29 1008.67 1009.09 1009.49 1009.92 1010.50 1011.31 1011.95 1012.19 1012.42 1013.00 1013.60 1014.20 1014.59 1015.10 1015.45 1015.89 1016.39 1017.05 1017.59 1018.14 1018.63 1019.08 1019.52 1019.99
1001.89 1002.34 1002.71 1002.90 1003.15 1003.65 1004.13 1004.37 1004.83 1005.28 1005.53 1005.92 1006.27 1006.60 1006.82 1007.03 1007.34 1007.65 1007.97 1008.26 1008.78 1009.35 1009.93 1010.81 1011.76 1012.35 1012.68 1013.32 1013.68 1014.11 1014.86 1015.35 1015.79 1016.13 1016.66 1017.17 1017.66 1018.15 1018.59 1018.95 1019.38 1019.86 1020.29
1002.15 1002.39 1002.75 1003.15 1003.53 1004.27 1004.70 1004.71 1004.94 1005.22 1005.63 1006.12 1006.30 1006.46 1006.81 1006.75 1007.11 1007.36 1007.71 1008.11 1008.75 1009.41 1010.27 1011.14 1011.90 1012.55 1013.06 1013.55 1013.99 1014.60 1015.13 1015.83 1016.49 1016.73 1017.22 1017.81 1018.20 1018.80 1019.25 1019.48 1019.77 1020.04 1020.48
1002.28 1002.64 1003.00 1003.58 1004.33 1005.20 1005.87 1005.58 1005.54 1005.57 1005.66 1005.97 1006.18 1006.57 1007.10 1007.38 1007.63 1007.67 1007.82 1008.07 1008.54 1009.26 1010.14 1010.94 1011.76 1012.51 1013.04 1013.61 1014.22 1014.74 1015.22 1015.84 1016.78 1016.94 1017.29 1018.21 1018.44 1018.93 1019.22 1019.63 1019.93 1020.34 1020.67
1002.73 1003.08 1003.57 1004.11 1005.04 1005.80 1006.14 1005.99 1005.91 1005.76 1005.93 1005.94 1006.04 1006.43 1006.73 1007.27 1007.56 1008.02 1008.37 1008.55 1008.92 1009.52 1009.88 1010.56 1011.56 1012.34 1012.94 1013.44 1013.97 1014.66 1015.25 1015.68 1016.36 1017.32 1017.45 1018.38 1018.68 1019.16 1019.47 1019.88 1020.13 1020.53 1020.83
1003.23 1003.69 1004.04 1004.62 1005.36 1006.26 1006.34 1006.23 1006.12 1006.14 1006.25 1006.28 1006.45 1006.58 1007.03 1007.30 1007.65 1008.20 1008.53 1009.05 1009.58 1010.10 1010.43 1010.79 1011.53 1012.24 1012.83 1013.46 1014.00 1014.56 1015.12 1015.99 1017.00 1017.61 1017.87 1018.67 1019.13 1019.53 1019.89 1020.05 1020.33 1020.68 1020.93
1003.75 1004.05 1004.36 1004.90 1005.63 1006.45 1006.67 1006.61 1006.63 1006.69 1006.91 1007.10 1007.32 1007.29 1007.40 1007.85 1008.24 1008.49 1008.75 1009.54 1010.25 1011.00 1011.07 1011.19 1011.72 1012.48 1013.22 1013.60 1013.96 1014.69 1015.63 1016.15 1017.13 1017.80 1018.06 1018.42 1019.23 1019.62 1019.97 1020.10 1020.43 1020.63 1020.89
1003.84 1004.31 1004.70 1005.20 1005.98 1006.68 1006.96 1007.04 1007.22 1007.31 1007.52 1007.72 1007.84 1007.94 1008.04 1008.57 1008.85 1008.98 1009.40 1009.96 1010.70 1011.40 1011.77 1012.40 1013.02 1013.45 1013.61 1014.22 1014.48 1014.41 1014.99 1015.92 1016.68 1017.71 1017.96 1018.27 1018.89 1019.12 1019.70 1019.52 1019.73 1020.33 1020.63
Wind_Speed
10 9 8 8 10 9 10 9 9 8 9 8 11 5 6 5 5 1 4 13 11 11 12 12 12 12 12 10 10 10 10 11 14 16 15 14 13 14 14 15 13 9 7
10 10 10 9 7 10 10 10 8 9 9 10 6 7 6 5 5 1 1 6 13 13 13 13 13 14 14 13 11 11 10 12 14 15 16 16 12 11 17 15 11 13 11
12 13 9 10 10 9 9 11 10 6 8 7 9 7 7 6 2 2 2 5 7 13 14 14 14 15 15 14 13 12 12 12 14 16 16 16 14 13 16 16 17 17 15
15 10 10 9 8 8 9 5 9 6 6 5 5 6 5 4 4 5 5 4 5 5 11 13 13 14 14 14 15 14 12 12 12 13 16 15 15 14 17 16 16 17 16
17 13 10 8 10 7 6 8 5 4 4 5 4 5 4 4 4 4 8 5 7 8 6 13 15 15 14 14 15 15 13 12 11 12 15 15 16 15 15 16 16 14 13
16 13 9 9 6 9 7 5 7 5 5 5 7 3 4 3 5 7 6 7 5 7 6 7 6 7 12 14 14 14 15 14 12 12 14 14 14 15 13 13 11 11 13
11 13 10 6 10 7 9 7 5 7 5 3 2 2 2 6 7 8 5 5 5 5 7 7 4 3 6 15 14 15 16 16 14 13 12 15 17 14 13 13 13 21 27
11 10 10 10 9 7 8 6 8 5 4 4 3 1 4 6 9 7 2 3 5 4 4 5 5 5 5 4 8 14 15 15 17 14 13 15 16 16 15 14 22 26 27
9 9 10 8 7 9 7 7 6 7 5 4 6 3 3 2 2 2 5 4 5 3 4 4 3 8 7 3 5 9 11 12 15 15 14 16 17 17 17 18 25 25 26
7 9 9 10 6 9 6 8 6 5 4 5 3 4 7 2 2 1 1 2 2 4 3 3 4 6 9 4 5 1 10 10 14 13 15 17 19 19 19 23 25 25 26
7 6 8 10 5 7 7 9 9 9 7 4 4 4 4 4 4 3 3 1 1 4 3 4 4 8 6 5 4 3 7 11 13 14 12 15 18 19 19 26 25 25 25
5 7 7 6 6 6 7 8 8 9 5 4 5 4 4 4 3 2 1 2 3 2 0 1 2 1 6 8 10 20 14 13 10 11 11 13 17 19 23 25 27 25 24
5 7 6 6 5 7 7 6 6 5 5 5 5 1 1 3 2 1 2 3 1 1 2 3 3 1 4 5 7 10 8 10 9 11 12 14 17 19 25 26 27 25 23
7 8 8 8 9 7 5 6 5 5 6 4 4 2 2 2 3 3 3 3 1 1 2 3 2 3 3 3 2 10 5 7 9 10 12 14 15 20 21 22 22 20 20
8 9 11 10 8 8 8 7 4 5 6 5 3 3 0 1 0 2 3 2 2 2 2 1 3 7 4 1 3 4 6 9 9 11 13 17 21 20 21 18 15 14 18
11 11 9 8 7 7 8 6 5 4 6 4 3 3 3 3 4 2 4 3 2 2 3 2 1 8 6 7 9 8 8 9 10 13 17 19 18 17 15 15 15 16 16
10 10 8 8 7 7 6 5 2 7 6 6 4 4 5 5 3 3 3 3 3 2 4 2 3 5 6 7 6 7 8 7 5 15 20 19 18 17 17 15 15 14 13
10 10 8 6 6 6 5 5 5 5 6 6 6 6 6 4 4 5 4 5 4 3 4 9 3 3 5 6 8 9 7 6 6 14 19 19 18 17 15 14 14 12 11
6 7 6 6 6 7 8 6 4 3 4 5 6 7 5 6 5 2 4 5 4 4 4 7 4 2 4 5 7 8 8 9 6 18 18 19 16 15 14 13 12 11 12
6 6 6 7 5 7 5 5 4 4 4 4 2 5 5 7 6 6 6 6 5 5 5 7 6 3 3 5 5 8 7 6 7 7 10 11 11 12 10 11 11 11 11
6 7 5 7 8 9 6 5 3 4 4 4 6 4 1 3 4 4 4 5 7 6 7 7 5 3 4 4 8 5 8 8 6 6 8 7 7 5 4 6 8 11 11
6 8 7 8 8 7 5 7 5 4 4 4 5 6 7 11 10 9 9 5 9 8 8 8 4 6 4 6 7 8 10 9 4 3 8 6 5 6 4 4 8 10 9
6 7 8 8 9 7 6 7 6 3 4 2 5 5 5 5 9 8 9 12 11 9 10 8 9 7 7 7 9 10 10 8 6 5 9 5 2 5 4 3 8 7 9
7 6 7 9 8 5 5 5 6 5 5 5 5 3 7 5 7 8 7 8 8 6 8 7 9 8 8 9 9 8 11 11 8 7 3 4 1 2 2 2 6 7 7
6 5 6 9 9 6 5 6 6 5 6 6 6 6 8 8 8 5 7 10 9 8 12 13 13 15 13 12 12 11 10 12 8 4 1 3 3 3 3 3 4 8 8
5 6 8 9 10 6 5 6 6 4 5 4 4 7 12 8 8 10 10 10 10 8 11 11 10 11 11 10 8 7 11 11 8 4 3 4 4 4 3 4 5 5 4
Wind_Direction
206 203 211 209 188 195 192 211 201 207 217 236 245 250 269 258 230 218 152 171 176 179 194 195 213 226 228 225 207 194 187 176 180 180 190 192 197 193 193 191 175 190 215
196 208 210 201 197 191 192 201 206 213 198 212 216 225 245 234 227 190 151 170 183 193 195 201 209 222 227 226 222 199 199 186 185 187 190 195 195 199 184 183 177 204 214
207 201 203 218 207 187 202 186 218 209 201 197 216 197 220 226 197 232 233 180 197 202 204 201 208 221 223 227 221 210 199 194 190 192 200 198 195 198 194 193 187 202 222
196 201 207 201 217 215 192 194 193 213 206 223 180 225 171 172 200 231 237 231 177 193 218 221 207 217 223 223 223 208 199 191 196 187 192 189 192 198 189 183 190 203 211
194 198 206 204 191 207 211 198 187 182 216 213 222 218 169 170 206 234 228 235 200 200 191 208 209 216 215 209 213 207 197 187 190 183 186 188 191 189 190 193 192 186 166
184 195 202 199 189 203 205 194 183 202 213 195 230 211 166 183 226 231 221 213 200 197 197 196 217 206 215 208 200 200 196 190 185 183 180 177 176 172 168 160 160 165 159
181 182 200 210 201 208 203 189 176 200 206 193 189 254 219 225 232 227 208 194 202 203 197 201 197 170 207 206 203 198 193 190 191 187 176 171 171 170 159 156 155 131 134
175 179 185 203 199 212 193 200 186 180 194 166 201 220 264 253 229 216 191 181 214 226 233 243 179 183 3 199 199 180 190 192 193 183 170 171 169 168 158 153 138 144 143
167 181 181 200 203 204 199 197 184 175 185 215 198 189 257 242 102 178 215 204 210 198 231 261 268 139 202 167 178 176 186 195 193 177 171 170 162 166 158 150 143 147 151
173 171 174 200 229 191 210 184 167 180 196 191 176 221 253 320 253 233 129 213 246 239 243 257 170 134 194 165 147 324 196 187 171 175 180 172 174 166 158 153 151 156 152
151 174 184 200 207 185 203 171 164 191 206 162 173 201 191 219 207 214 275 231 258 255 234 247 199 188 168 205 69 260 238 183 173 174 188 172 177 171 163 155 158 152 156
159 170 178 180 163 192 161 171 185 197 166 198 225 224 176 186 183 162 265 284 242 302 186 95 130 181 166 136 163 231 216 177 170 157 156 162 165 157 156 159 149 156 151
158 161 176 171 180 204 193 174 148 161 180 212 236 195 243 99 105 134 185 248 231 134 100 66 44 271 183 126 154 149 177 167 151 145 150 157 152 151 149 153 157 155 154
167 176 190 180 187 181 165 146 156 178 189 187 173 179 19 122 172 188 187 188 239 203 100 134 146 159 70 90 81 149 170 158 140 146 149 146 143 146 147 147 157 157 159
174 175 187 181 166 169 173 144 186 185 145 160 189 145 91 353 131 254 155 173 198 172 180 142 127 128 113 257 260 223 159 146 136 140 142 136 139 141 148 157 152 150 140
167 171 163 156 172 163 136 157 147 186 158 150 124 166 192 228 240 176 160 171 133 136 135 172 106 147 157 184 220 174 120 115 129 140 138 137 138 138 138 137 135 135 142
141 149 150 155 159 134 132 150 276 177 166 146 168 186 223 215 233 200 136 95 111 135 127 72 82 133 148 132 103 106 116 98 112 134 130 130 126 131 132 128 134 145 156
153 155 150 142 145 150 152 170 197 190 165 179 181 197 209 193 213 221 136 153 159 171 117 110 83 88 102 80 86 93 97 102 115 124 125 126 125 124 125 131 145 152 150
130 131 135 159 167 166 173 180 182 210 204 211 206 213 218 185 197 190 157 162 155 153 135 121 106 55 79 88 85 76 84 92 98 122 118 119 120 124 132 141 147 152 143
125 127 163 185 166 107 135 179 185 206 214 190 269 215 238 184 181 191 181 159 145 131 128 117 106 90 89 88 100 117 101 95 100 100 93 109 116 117 130 140 137 137 147
149 172 122 87 74 64 30 33 96 104 127 166 219 160 321 169 111 123 164 140 135 130 119 126 130 107 132 134 140 118 108 108 92 114 112 111 118 108 108 104 126 140 148
95 80 83 88 82 75 51 54 27 144 136 151 166 157 127 115 92 91 79 153 142 136 133 147 125 146 135 123 129 130 128 125 112 103 112 106 130 125 137 139 137 148 144
100 96 86 98 97 90 60 59 24 72 98 125 136 169 128 109 112 101 93 81 99 127 136 134 147 147 137 143 137 137 140 118 117 127 122 112 52 114 105 113 145 144 147
92 84 97 107 95 78 64 69 66 72 76 58 55 61 112 114 106 126 127 104 103 90 132 128 133 130 126 134 133 133 120 107 104 115 99 107 103 106 125 136 140 158 163
129 115 103 109 104 92 52 76 75 81 71 66 58 36 97 94 82 57 116 99 86 73 57 84 105 112 118 120 126 127 131 133 130 133 129 107 165 125 165 181 170 177 177
134 119 106 97 98 108 84 88 96 94 95 70 61 67 62 96 84 104 111 110 104 110 105 102 103 102 112 121 128 144 146 144 133 111 207 115 147 152 178 214 165 169 194